EW6329 Weather Reports


time (UTC)temp
F
wind
direction
speed
knots
gust
knots
rain 1hr
in
rain 24hr
in
rain mn
in
humidity
%
barometer
mb
20260505070025 65 77 0.0 0.9 0.00 0.00 0.00 62 1007.8
20260505064535 65 69 0.0 0.0 0.00 0.00 0.00 61 1008.0
20260505063050 66 69 0.0 1.7 0.00 0.00 0.00 60 1008.2
20260505061624 66 69 0.0 1.7 0.00 0.00 0.00 60 1008.1
20260505060008 66 69 0.0 0.9 0.00 0.00 0.00 59 1008.3
20260505054523 67 89 0.0 0.0 0.00 0.00 0.00 59 1008.2
20260505053031 67 43 0.0 1.7 0.00 0.00 0.00 59 1008.2
20260505051545 67 118 0.0 1.7 0.00 0.00 0.00 58 1008.3
20260505041535 67 89 0.0 1.7 0.00 0.00 0.00 58 1008.5
20260505040050 67 127 0.0 1.7 0.00 0.00 0.00 58 1008.4
20260505034500 68 142 0.0 0.9 0.00 0.00 0.00 57 1008.4
20260505033027 68 142 0.0 1.7 0.00 0.00 0.00 56 1008.4
20260505031528 68 142 0.0 0.0 0.00 0.00 0.00 55 1008.3
20260505030040 68 142 0.0 1.7 0.00 0.00 0.00 54 1008.3
20260505024607 69 69 0.0 1.7 0.00 0.00 0.00 53 1008.1
20260505023004 69 69 0.0 1.7 0.00 0.00 0.00 52 1008.0
20260505021533 70 103 0.0 0.0 0.00 0.00 0.00 51 1007.9
20260505020030 71 103 0.0 0.0 0.00 0.00 0.00 50 1007.7
20260505014546 72 99 0.0 0.9 0.00 0.00 0.00 48 1007.6
20260505013057 73 99 0.0 0.9 0.00 0.00 0.00 47 1007.6
20260505011508 73 115 0.0 1.7 0.00 0.00 0.00 46 1007.7
20260505010020 74 115 0.0 1.7 0.00 0.00 0.00 45 1007.6
20260505004541 75 90 0.0 1.7 0.00 0.00 0.00 44 1007.3
20260505003046 75 96 0.0 2.6 0.00 0.00 0.00 43 1007.4
20260505001600 76 123 0.0 1.7 0.00 0.00 0.00 44 1007.3
20260505000011 76 86 0.0 3.5 0.00 0.00 0.00 43 1007.4
20260504234524 77 126 0.0 4.3 0.00 0.00 0.00 41 1007.3
20260504233050 78 315 0.9 5.2 0.00 0.00 0.00 40 1007.5
20260504231549 78 95 0.0 3.5 0.00 0.00 0.00 40 1007.4
20260504230111 79 360 0.0 3.5 0.00 0.00 0.00 40 1007.6
20260504224513 79 126 0.9 7.0 0.00 0.00 0.00 38 1007.7
20260504223034 78 225 0.0 2.6 0.00 0.00 0.00 38 1007.6
20260504221546 79 98 0.9 6.1 0.00 0.00 0.00 39 1007.7
20260504220118 79 298 0.9 5.2 0.00 0.00 0.00 39 1007.7
20260504214503 79 299 1.7 7.0 0.00 0.00 0.00 39 1007.7
20260504213018 79 265 0.9 2.6 0.00 0.00 0.00 39 1007.6
20260504211530 80 329 0.9 5.2 0.00 0.00 0.00 38 1007.8
20260504210043 79 327 0.0 5.2 0.00 0.00 0.00 38 1007.9
20260504204606 79 264 0.9 7.0 0.00 0.00 0.00 39 1008.1
20260504203005 80 307 0.9 4.3 0.00 0.00 0.00 38 1008.3
20260504201516 79 294 0.9 8.7 0.00 0.00 0.00 40 1008.6
20260504200031 79 123 0.0 3.5 0.00 0.00 0.00 42 1008.8
20260504194546 79 298 0.9 4.3 0.00 0.00 0.00 40 1009.0
20260504193059 79 276 0.0 3.5 0.00 0.00 0.00 41 1009.3
20260504191512 79 309 0.9 6.1 0.00 0.00 0.00 39 1009.7
20260504190020 79 293 0.9 5.2 0.00 0.00 0.00 39 1009.8
20260504184536 78 290 0.0 5.2 0.00 0.00 0.00 41 1010.0
20260504183047 78 300 0.9 7.8 0.00 0.00 0.00 41 1009.9
20260504181609 78 134 0.0 5.2 0.00 0.00 0.00 41 1010.1
20260504180010 78 263 0.9 6.1 0.00 0.00 0.00 44 1010.2
20260504174524 77 319 0.9 5.2 0.00 0.00 0.00 44 1010.5
20260504173035 77 317 1.7 7.8 0.00 0.00 0.00 44 1010.7
20260504171549 76 288 0.9 4.3 0.00 0.00 0.00 46 1010.8
20260504170104 75 271 0.9 5.2 0.00 0.00 0.00 46 1011.1
20260504081504 61 308 0.0 1.7 0.00 0.00 0.00 66 1011.9